This demonstration page uses our WeatherBlox Daily Observations layout. Learn more.

Hourly Observations for October 26, 2020

Temp ( °F °C ) Dew Point ( °F °C ) Humidity (%) Winds ( mph kmh ) Pressure ( in mb ) Visibility ( mi km ) Precip ( " mm )
12:08 am 00:08 Windy with Snow Likely 25 -3.9 19 -7.2 78 78 N 22 35 30.49 1033 4 6.43736 0.001 0.001
12:20 am 00:20 Windy with Snow Likely 24 -4.4 19 -7.2 81 81 N 20 31 30.5 1033 4 6.43736 0.001 0.001
12:54 am 00:54 Windy with Snow Likely 24 -4.4 19 -7.2 81 81 N 20 31 30.47 1032 6 9.65604 0.001 0.001
1:09 am 01:09 Windy with Snow Likely 24 -4.4 19 -7.2 81 81 N 20 31 30.51 1033 1.75 2.816345 0.001 0.001
1:19 am 01:19 Mostly Cloudy with Light Snow 24 -4.4 20 -6.7 84 84 N 16 26 30.51 1033 0.75 1.207005 0.001 0.001
1:30 am 01:30 Mostly Cloudy with Light Snow 24 -4.4 20 -6.7 84 84 N 17 28 30.52 1034 0.75 1.207005 0.001 0.001
1:39 am 01:39 Mostly Cloudy with Light Snow 23 -5 19 -7.2 85 85 NNW 18 30 30.54 1034 1 1.60934 0.01 0.254
1:54 am 01:54 Mostly Cloudy with Snow 23 -5 19 -7.2 85 85 NNW 20 31 30.51 1033 0.5 0.80467 0.02 0.508
2:44 am 02:44 Mostly Cloudy with Light Snow 22 -5.6 18 -7.8 85 85 N 15 24 30.55 1035 1 1.60934 0.03 0.762
2:51 am 02:51 Cloudy with Light Snow 21 -6 18 -8 86 86 N 17 28 30.54 1034 1.25 2.011675 0.03 0.762
2:54 am 02:54 Cloudy with Light Snow 21 -6.1 17 -8.3 85 85 N 16 26 30.5 1033 1.25 2.011675 0.04 1.016
2:58 am 02:58 Cloudy with Light Snow 21 -6.1 17 -8.3 85 85 N 15 24 30.54 1034 1.75 2.816345 0.001 0.001
3:06 am 03:06 Cloudy with Light Snow 21 -6.1 17 -8.3 85 85 N 14 22 30.55 1035 2.5 4.02335 0.001 0.001
3:16 am 03:16 Cloudy with Light Snow 21 -6.1 17 -8.3 85 85 NNW 15 24 30.55 1035 3 4.82802 0.001 0.001
3:54 am 03:54 Cloudy 22 -5.6 16 -8.9 78 78 N 13 20 30.48 1032 10 16.0934 0.001 0.001
4:54 am 04:54 Mostly Cloudy 22 -5.6 15 -9.4 75 75 N 17 28 30.49 1033 10 16.0934 0.001 0.001
5:54 am 05:54 Cloudy 22 -5.6 13 -10.6 68 68 N 15 24 30.49 1033 10 16.0934 0 0
6:54 am 06:54 Cloudy 21 -6.1 13 -10.6 71 71 N 13 20 30.49 1032 10 16.0934 0 0
7:54 am 07:54 Mostly Cloudy 21 -6.1 13 -10.6 71 71 N 12 19 30.5 1033 10 16.0934 0 0
8:54 am 08:54 Cloudy 20 -6.7 13 -10.6 74 74 N 10 17 30.53 1034 10 16.0934 0 0
9:54 am 09:54 Mostly Cloudy 21 -6.1 13 -10.6 71 71 N 15 24 30.54 1034 10 16.0934 0 0
10:54 am 10:54 Partly Cloudy 23 -5 15 -9.4 72 72 N 9 15 30.55 1034 10 16.0934 0 0
11:54 am 11:54 Partly Cloudy 25 -3.9 15 -9.4 66 66 N 8 13 30.54 1034 10 16.0934 0 0
12:54 pm 12:54 Sunny 28 -2.2 15 -9.4 58 58 NNE 13 20 30.52 1034 10 16.0934 0 0
1:54 pm 13:54 Sunny 28 -2.2 15 -9.4 58 58 NNE 12 19 30.49 1033 10 16.0934 0 0
2:54 pm 14:54 Mostly Sunny 30 -1.1 16 -8.9 56 56 N 13 20 30.47 1032 10 16.0934 0 0
3:54 pm 15:54 Mostly Sunny 30 -1.1 15 -9.4 54 54 NE 7 11 30.46 1032 10 16.0934 0 0
4:54 pm 16:54 Partly Cloudy 31 -0.6 16 -8.9 54 54 N 9 15 30.46 1032 10 16.0934 0 0
5:54 pm 17:54 Mostly Sunny 28 -2.2 15 -9.4 58 58 N 7 11 30.46 1031 10 16.0934 0 0
6:54 pm 18:54 Mostly Clear 27 -2.8 16 -8.9 63 63 NNE 6 9 30.45 1031 10 16.0934 0 0
7:54 pm 19:54 Clear 25 -3.9 16 -8.9 69 69 N 6 9 30.48 1032 10 16.0934 0 0
8:54 pm 20:54 Cloudy 26 -3.3 16 -8.9 66 66 N 8 13 30.48 1032 10 16.0934 0 0
9:54 pm 21:54 Cloudy 26 -3.3 16 -8.9 66 66 N 8 13 30.47 1032 10 16.0934 0 0
10:54 pm 22:54 Cloudy 26 -3.3 16 -8.9 66 66 N 5 7 30.49 1032 10 16.0934 0 0
11:54 pm 23:54 Cloudy 26 -3.3 15 -9.4 63 63 Calm 30.5 1033 10 16.0934 0 0

Powered by AerisWeather